Tracking 17145 objects as of 23-May-2015
HD Live streaming from Space Station

COSMOS 1444 DEB


COSMOS 1444 DEB is no longer on orbit
COSMOS 1444 DEB is classified as:


NORAD ID: 13893
Int'l Code: 1983-014E
Perigee: N/A
Apogee: N/A
Inclination: N/A
Period: N/A
Semi major axis: N/A
RCS: N/A
Launch date: March 2, 1983
Source: Commonwealth of Independent States (former USSR) (CIS)
Decay date: 1983-05-26

Note: This is SATELLITE DEBRIS
Your satellite tracking list
Your tracking list is empty





NASA's NSSDC Master Catalog

Two Line Element Set (TLE):
1 13893U 83014  E 83146.34393229  .00273328 +81978-5 +61293-4 0  9995
2 13893 072.8140 119.0373 0008521 241.4658 125.1202 16.30032610013388

Source of the keplerian elements: AFSPC

N2YO: 297